Location: Pallagorio
(39.3000°N, 16.9000°E)
Time: 06:31:04
(UTC+00:00)

SAR-Lupe-1 - Visible Passes

Search period start: 11 May 2021 00:00
Search period end: 21 May 2021 00:00
Orbit: 482 x 483 km, 98.2° (Epoch: 30 March)

Date Brightness Start Highest point End Pass type
(mag) Time Alt. Az. Time Alt. Az. Time Alt. Az.
11 May 7.6 19:25:58 10° NW 19:27:17 12° WNW 19:28:36 10° W visible
12 May 6.8 18:59:40 10° NNW 19:02:32 23° WNW 19:05:24 10° WSW visible
13 May 5.2 18:34:15 10° N 18:37:43 48° WNW 18:41:09 10° SSW visible
15 May 7.3 19:18:46 10° NNW 19:20:48 15° WNW 19:22:49 10° W visible
16 May 6.4 18:52:53 10° N 18:56:01 29° WNW 18:59:08 10° SW visible
17 May 4.6 18:27:35 10° N 18:31:09 64° WNW 18:34:40 10° SSW visible
19 May 7.1 19:11:45 10° NNW 19:14:16 18° WNW 19:16:45 10° WSW visible
20 May 5.8 18:46:08 10° N 18:49:27 36° WNW 18:52:45 10° SW visible
